Location: *
(49.0044°N, 9.5056°E)
Time: 11:24:14
(UTC+00:00)

ERBS - Pass Details

Date: 22 September 2019
Orbit: 417 x 425 km, 57.0° (Epoch: 19 October)

Event Time Altitude Azimuth Distance (km) Brightness Sun altitude
Rises 19:22:06 0° 302° (WNW) 2,395 7.7 -20.1°
Reaches altitude 10° 19:24:15 10° 296° (WNW) 1,525 6.3 -20.4°
Maximum altitude 19:27:31 44° 223° (SW) 599 3.0 -20.9°
Enters shadow 19:27:37 44° 217° (SW) 600 3.0 -20.9°
